Time,TemperatureF,DewpointF,PressureIn,WindDirection,WindDirectionDegrees,WindSpeedMPH,WindSpeedGustMPH,Humidity,HourlyPrecipIn,Conditions,Clouds,dailyrainin,SoftwareType,DateUTC
2013-02-23 00:07:00,23.2,19.0,30.05,WSW,242,3.0,10.0,82,0.00,,,0.14,weatherlink.com 1.10,2013-02-23 06:07:00,
2013-02-23 00:23:00,23.0,19.0,30.05,West,263,4.0,6.0,83,0.00,,,0.14,weatherlink.com 1.10,2013-02-23 06:23:00,
2013-02-23 00:38:00,23.8,19.0,30.05,West,264,4.0,6.0,82,0.00,,,0.14,weatherlink.com 1.10,2013-02-23 06:38:00,
2013-02-23 00:53:00,23.7,19.0,30.05,WSW,248,1.0,3.0,83,0.00,,,0.14,weatherlink.com 1.10,2013-02-23 06:53:00,
2013-02-23 01:08:00,24.1,19.0,30.05,West,273,3.0,8.0,81,0.00,,,0.14,weatherlink.com 1.10,2013-02-23 07:08:00,
2013-02-23 01:23:00,24.1,20.0,30.05,WSW,245,1.0,3.0,84,0.00,,,0.14,weatherlink.com 1.10,2013-02-23 07:23:00,
2013-02-23 01:38:00,24.1,19.0,30.05,WSW,255,2.0,7.0,82,0.00,,,0.14,weatherlink.com 1.10,2013-02-23 07:38:00,
2013-02-23 01:53:00,24.0,19.0,30.05,West,269,5.0,9.0,81,0.00,,,0.14,weatherlink.com 1.10,2013-02-23 07:53:00,
2013-02-23 02:08:00,23.9,19.0,30.05,West,279,6.0,8.0,80,0.00,,,0.00,weatherlink.com 1.10,2013-02-23 08:08:00,
2013-02-23 02:23:00,23.8,18.0,30.05,West,272,8.0,12.0,79,0.00,,,0.00,weatherlink.com 1.10,2013-02-23 08:23:00,
2013-02-23 02:38:00,23.7,18.0,30.04,West,268,5.0,11.0,79,0.00,,,0.00,weatherlink.com 1.10,2013-02-23 08:38:00,
2013-02-23 02:53:00,23.4,18.0,30.04,West,278,5.0,8.0,79,0.00,,,0.00,weatherlink.com 1.10,2013-02-23 08:53:00,
2013-02-23 03:08:00,23.2,18.0,30.04,West,277,2.0,6.0,79,0.00,,,0.00,weatherlink.com 1.10,2013-02-23 09:08:00,
2013-02-23 03:23:00,23.1,18.0,30.04,West,263,1.0,5.0,80,0.00,,,0.00,weatherlink.com 1.10,2013-02-23 09:23:00,
2013-02-23 03:38:00,23.0,18.0,30.05,West,263,2.0,5.0,80,0.00,,,0.00,weatherlink.com 1.10,2013-02-23 09:38:00,
2013-02-23 03:53:00,22.9,18.0,30.05,WNW,284,2.0,9.0,80,0.00,,,0.00,weatherlink.com 1.10,2013-02-23 09:53:00,
2013-02-23 04:08:00,22.8,18.0,30.04,WNW,296,2.0,5.0,81,0.00,,,0.00,weatherlink.com 1.10,2013-02-23 10:08:00,
2013-02-23 04:23:00,22.8,18.0,30.05,West,261,5.0,7.0,81,0.00,,,0.00,weatherlink.com 1.10,2013-02-23 10:23:00,
2013-02-23 04:38:00,22.6,17.0,30.05,West,270,8.0,11.0,80,0.00,,,0.00,weatherlink.com 1.10,2013-02-23 10:38:00,
2013-02-23 04:53:00,22.3,17.0,30.05,WNW,293,3.0,8.0,80,0.00,,,0.00,weatherlink.com 1.10,2013-02-23 10:53:00,
2013-02-23 05:08:00,21.9,17.0,30.05,West,273,3.0,8.0,81,0.00,,,0.00,weatherlink.com 1.10,2013-02-23 11:08:00,
2013-02-23 05:23:00,21.8,17.0,30.05,WNW,290,3.0,8.0,80,0.00,,,0.00,weatherlink.com 1.10,2013-02-23 11:23:00,
2013-02-23 05:38:00,21.7,16.0,30.05,West,266,3.0,5.0,80,0.00,,,0.00,weatherlink.com 1.10,2013-02-23 11:38:00,
2013-02-23 05:53:00,21.9,17.0,30.04,NW,304,4.0,10.0,80,0.00,,,0.00,weatherlink.com 1.10,2013-02-23 11:53:00,
2013-02-23 06:08:00,21.5,18.0,30.05,South,178,0.0,4.0,86,0.00,,,0.00,weatherlink.com 1.10,2013-02-23 12:08:00,
2013-02-23 06:23:00,20.6,17.0,30.05,South,176,0.0,4.0,87,0.00,,,0.00,weatherlink.com 1.10,2013-02-23 12:23:00,
2013-02-23 06:38:00,20.2,17.0,30.05,South,177,0.0,2.0,87,0.00,,,0.00,weatherlink.com 1.10,2013-02-23 12:38:00,
2013-02-23 06:53:00,20.0,17.0,30.06,South,177,1.0,3.0,88,0.00,,,0.00,weatherlink.com 1.10,2013-02-23 12:53:00,
2013-02-23 07:08:00,20.0,17.0,30.07,SW,222,3.0,4.0,88,0.00,,,0.00,weatherlink.com 1.10,2013-02-23 13:08:00,
2013-02-23 07:23:00,20.0,17.0,30.06,SW,232,0.0,6.0,87,0.00,,,0.00,weatherlink.com 1.10,2013-02-23 13:23:00,
2013-02-23 07:38:00,20.0,17.0,30.06,WSW,246,2.0,6.0,86,0.00,,,0.00,weatherlink.com 1.10,2013-02-23 13:38:00,
2013-02-23 07:53:00,20.1,17.0,30.05,West,262,5.0,5.0,86,0.00,,,0.00,weatherlink.com 1.10,2013-02-23 13:53:00,
2013-02-23 08:08:00,20.6,17.0,30.06,West,265,1.0,5.0,85,0.00,,,0.00,weatherlink.com 1.10,2013-02-23 14:08:00,
2013-02-23 08:23:00,21.1,17.0,30.05,WNW,285,3.0,5.0,84,0.00,,,0.00,weatherlink.com 1.10,2013-02-23 14:23:00,
2013-02-23 08:38:00,21.5,17.0,30.06,West,263,3.0,5.0,83,0.00,,,0.00,weatherlink.com 1.10,2013-02-23 14:38:00,
2013-02-23 08:53:00,21.8,17.0,30.07,WNW,290,1.0,5.0,83,0.00,,,0.00,weatherlink.com 1.10,2013-02-23 14:53:00,
2013-02-23 09:08:00,22.5,18.0,30.06,NW,304,2.0,6.0,81,0.00,,,0.00,weatherlink.com 1.10,2013-02-23 15:08:00,
2013-02-23 09:23:00,22.6,17.0,30.06,NW,319,4.0,10.0,80,0.00,,,0.00,weatherlink.com 1.10,2013-02-23 15:23:00,
2013-02-23 09:38:00,23.3,18.0,30.06,WNW,300,2.0,8.0,80,0.00,,,0.00,weatherlink.com 1.10,2013-02-23 15:38:00,
2013-02-23 09:53:00,24.1,19.0,30.06,West,281,4.0,5.0,79,0.00,,,0.00,weatherlink.com 1.10,2013-02-23 15:53:00,
2013-02-23 10:08:00,24.0,18.0,30.05,West,259,5.0,7.0,77,0.00,,,0.00,weatherlink.com 1.10,2013-02-23 16:08:00,
2013-02-23 10:23:00,24.7,18.0,30.05,West,261,3.0,7.0,76,0.01,,,0.01,weatherlink.com 1.10,2013-02-23 16:23:00,
2013-02-23 10:38:00,25.3,19.0,30.06,NW,318,3.0,7.0,76,0.01,,,0.01,weatherlink.com 1.10,2013-02-23 16:38:00,
2013-02-23 10:53:00,25.9,19.0,30.05,NW,324,2.0,7.0,74,0.01,,,0.01,weatherlink.com 1.10,2013-02-23 16:53:00,
2013-02-23 11:08:00,26.4,19.0,30.06,NW,320,6.0,6.0,74,0.01,,,0.01,weatherlink.com 1.10,2013-02-23 17:08:00,
2013-02-23 11:23:00,26.7,18.0,30.05,WNW,288,4.0,6.0,71,0.01,,,0.02,weatherlink.com 1.10,2013-02-23 17:23:00,
2013-02-23 11:38:00,26.7,19.0,30.05,WNW,289,3.0,6.0,72,0.02,,,0.03,weatherlink.com 1.10,2013-02-23 17:38:00,
2013-02-23 11:53:00,26.7,18.0,30.05,NNW,334,4.0,7.0,71,0.03,,,0.04,weatherlink.com 1.10,2013-02-23 17:53:00,
2013-02-23 12:09:00,27.7,19.0,30.05,NW,320,1.0,7.0,70,0.04,,,0.05,weatherlink.com 1.10,2013-02-23 18:09:00,
2013-02-23 12:24:00,27.6,19.0,30.04,NW,315,5.0,6.0,70,0.04,,,0.06,weatherlink.com 1.10,2013-02-23 18:24:00,
2013-02-23 12:39:00,28.5,20.0,30.04,SW,231,5.0,6.0,69,0.04,,,0.07,weatherlink.com 1.10,2013-02-23 18:39:00,
2013-02-23 12:54:00,28.3,19.0,30.04,SW,229,2.0,8.0,69,0.04,,,0.08,weatherlink.com 1.10,2013-02-23 18:54:00,
2013-02-23 13:09:00,29.0,20.0,30.04,SW,234,1.0,7.0,68,0.03,,,0.08,weatherlink.com 1.10,2013-02-23 19:09:00,
2013-02-23 13:24:00,29.7,20.0,30.03,SSW,209,2.0,7.0,66,0.03,,,0.09,weatherlink.com 1.10,2013-02-23 19:24:00,
2013-02-23 13:39:00,29.6,20.0,30.04,SW,218,5.0,8.0,67,0.03,,,0.10,weatherlink.com 1.10,2013-02-23 19:39:00,
2013-02-23 13:54:00,30.1,20.0,30.04,SW,226,3.0,6.0,66,0.02,,,0.10,weatherlink.com 1.10,2013-02-23 19:54:00,
2013-02-23 14:09:00,29.9,20.0,30.03,SW,214,4.0,8.0,66,0.03,,,0.11,weatherlink.com 1.10,2013-02-23 20:09:00,
2013-02-23 14:24:00,29.9,20.0,30.02,WSW,258,6.0,9.0,67,0.03,,,0.12,weatherlink.com 1.10,2013-02-23 20:24:00,
2013-02-23 14:39:00,30.0,20.0,30.02,West,259,4.0,10.0,67,0.02,,,0.12,weatherlink.com 1.10,2013-02-23 20:39:00,
2013-02-23 14:54:00,29.9,20.0,30.02,West,275,5.0,8.0,66,0.03,,,0.13,weatherlink.com 1.10,2013-02-23 20:54:00,
2013-02-23 15:09:00,30.2,20.0,30.02,WSW,253,5.0,7.0,67,0.02,,,0.13,weatherlink.com 1.10,2013-02-23 21:09:00,
2013-02-23 15:24:00,30.2,20.0,30.02,SW,230,5.0,7.0,66,0.02,,,0.14,weatherlink.com 1.10,2013-02-23 21:24:00,
2013-02-23 15:39:00,30.1,20.0,30.02,SW,227,4.0,8.0,67,0.02,,,0.14,weatherlink.com 1.10,2013-02-23 21:39:00,
2013-02-23 15:54:00,29.9,20.0,30.02,West,274,3.0,7.0,67,0.01,,,0.14,weatherlink.com 1.10,2013-02-23 21:54:00,
2013-02-23 16:09:00,29.9,20.0,30.02,West,269,3.0,8.0,67,0.02,,,0.15,weatherlink.com 1.10,2013-02-23 22:09:00,
2013-02-23 16:24:00,29.8,20.0,30.02,West,270,1.0,7.0,66,0.02,,,0.16,weatherlink.com 1.10,2013-02-23 22:24:00,
2013-02-23 16:39:00,30.0,20.0,30.03,WSW,255,6.0,7.0,66,0.02,,,0.16,weatherlink.com 1.10,2013-02-23 22:39:00,
2013-02-23 16:54:00,29.7,20.0,30.03,WSW,258,5.0,7.0,67,0.02,,,0.16,weatherlink.com 1.10,2013-02-23 22:54:00,
2013-02-23 17:09:00,29.0,20.0,30.04,SW,236,3.0,7.0,68,0.01,,,0.16,weatherlink.com 1.10,2013-02-23 23:09:00,
2013-02-23 17:24:00,28.3,19.0,30.03,WSW,250,1.0,6.0,68,0.00,,,0.16,weatherlink.com 1.10,2013-02-23 23:24:00,
2013-02-23 17:39:00,27.5,19.0,30.04,WSW,250,1.0,4.0,70,0.00,,,0.16,weatherlink.com 1.10,2013-02-23 23:39:00,
2013-02-23 17:54:00,26.9,19.0,30.03,WSW,250,1.0,2.0,72,0.00,,,0.16,weatherlink.com 1.10,2013-02-23 23:54:00,
2013-02-23 18:09:00,26.5,19.0,30.04,WSW,250,0.0,2.0,73,0.00,,,0.16,weatherlink.com 1.10,2013-02-24 00:09:00,
2013-02-23 18:24:00,26.0,19.0,30.04,WSW,250,0.0,0.0,74,0.00,,,0.16,weatherlink.com 1.10,2013-02-24 00:24:00,
2013-02-23 18:39:00,25.3,19.0,30.05,WSW,250,0.0,2.0,76,0.00,,,0.16,weatherlink.com 1.10,2013-02-24 00:39:00,
2013-02-23 18:54:00,25.2,18.0,30.05,WSW,250,0.0,1.0,75,0.00,,,0.16,weatherlink.com 1.10,2013-02-24 00:54:00,
2013-02-23 19:09:00,24.9,18.0,30.04,WSW,250,0.0,1.0,76,0.00,,,0.16,weatherlink.com 1.10,2013-02-24 01:09:00,
2013-02-23 19:24:00,24.6,18.0,30.05,WSW,250,0.0,2.0,77,0.00,,,0.16,weatherlink.com 1.10,2013-02-24 01:24:00,
2013-02-23 19:39:00,24.5,18.0,30.05,WSW,250,0.0,0.0,77,0.00,,,0.16,weatherlink.com 1.10,2013-02-24 01:39:00,
2013-02-23 19:54:00,24.1,18.0,30.05,WSW,250,1.0,2.0,78,0.00,,,0.16,weatherlink.com 1.10,2013-02-24 01:54:00,
2013-02-23 20:09:00,24.0,18.0,30.04,WSW,250,0.0,2.0,79,0.00,,,0.16,weatherlink.com 1.10,2013-02-24 02:09:00,
2013-02-23 20:24:00,23.5,18.0,30.05,WSW,250,0.0,2.0,79,0.00,,,0.16,weatherlink.com 1.10,2013-02-24 02:24:00,
2013-02-23 20:39:00,23.0,18.0,30.05,WSW,250,0.0,2.0,80,0.00,,,0.16,weatherlink.com 1.10,2013-02-24 02:39:00,
2013-02-23 20:54:00,22.8,18.0,30.05,WSW,250,1.0,2.0,80,0.00,,,0.16,weatherlink.com 1.10,2013-02-24 02:54:00,
2013-02-23 21:09:00,23.2,18.0,30.05,WSW,250,1.0,3.0,79,0.00,,,0.16,weatherlink.com 1.10,2013-02-24 03:09:00,
2013-02-23 21:24:00,23.1,18.0,30.06,WSW,250,0.0,3.0,79,0.00,,,0.16,weatherlink.com 1.10,2013-02-24 03:24:00,
2013-02-23 21:39:00,22.9,18.0,30.05,WSW,250,1.0,1.0,80,0.00,,,0.16,weatherlink.com 1.10,2013-02-24 03:39:00,
2013-02-23 21:54:00,22.3,17.0,30.05,WSW,250,0.0,3.0,81,0.00,,,0.16,weatherlink.com 1.10,2013-02-24 03:54:00,
2013-02-23 22:09:00,22.0,17.0,30.06,SSW,205,1.0,5.0,82,0.00,,,0.16,weatherlink.com 1.10,2013-02-24 04:09:00,
2013-02-23 22:24:00,22.3,17.0,30.06,SSW,206,2.0,5.0,81,0.00,,,0.16,weatherlink.com 1.10,2013-02-24 04:24:00,
2013-02-23 22:39:00,22.4,17.0,30.06,SW,229,1.0,4.0,81,0.00,,,0.16,weatherlink.com 1.10,2013-02-24 04:39:00,
2013-02-23 22:54:00,22.1,17.0,30.05,SSW,209,1.0,2.0,81,0.00,,,0.16,weatherlink.com 1.10,2013-02-24 04:54:00,
2013-02-23 23:09:00,21.6,17.0,30.05,SSW,209,1.0,3.0,83,0.00,,,0.16,weatherlink.com 1.10,2013-02-24 05:09:00,
2013-02-23 23:24:00,21.6,17.0,30.04,SSW,202,2.0,3.0,83,0.00,,,0.16,weatherlink.com 1.10,2013-02-24 05:24:00,
2013-02-23 23:39:00,21.4,17.0,30.05,South,190,3.0,3.0,83,0.00,,,0.16,weatherlink.com 1.10,2013-02-24 05:39:00,
2013-02-23 23:54:00,20.8,17.0,30.05,South,190,1.0,3.0,84,0.00,,,0.16,weatherlink.com 1.10,2013-02-24 05:54:00,